Location: Newark
(50.2306°N, 14.0814°E)
Time: 19:41:44
(UTC+00:00)

N. Korean satellite - Pass Details

Date: 06 December 2019
Orbit: 454 x 507 km, 97.2° (Epoch: 28 January)

Event Time Altitude Azimuth Distance (km) Brightness Sun altitude
Rises 05:06:53 0° 12° (NNE) 2,581 10.2 -15.2°
Reaches altitude 10° 05:08:59 10° 12° (NNE) 1,686 9.2 -14.8°
Maximum altitude 05:12:36 87° 288° (WNW) 489 6.5 -14.3°
Drops below altitude 10° 05:16:08 10° 195° (SSW) 1,639 9.3 -13.8°
Sets 05:18:09 0° 195° (SSW) 2,503 10.2 -13.5°
